{"data":{"norad_id":43662,"epoch":"2026-09-20T04:21:40.866336Z","epoch_age_seconds":83641,"freshness":"FRESH","line1":"1 43662U 18083A   26263.18172299  .00001864  00000+0  99313-4 0  9996","line2":"2 43662  97.3661 264.9365 0002841 113.6380 246.5152 15.16398617436833","mean_motion":15.16398617,"eccentricity":0.0002841,"inclination_deg":97.3661,"raan_deg":264.9365,"arg_perigee_deg":113.638,"mean_anomaly_deg":246.5152,"bstar":9.9313e-5,"rev_number":43683,"period_min":94.961838124652,"perigee_km":514.77690904856,"apogee_km":518.69457574079,"semimajor_km":6894.8727423947,"source":"CELESTRAK","updated_at":"2026-09-20T09:00:14.366698Z"}}